GW4890 Weather Reports


Display with metric or nautical units.
time (UTC)temp
F
wind
direction
speed
MPH
gust
MPH
rain 1hr
in
rain 24hr
in
rain mn
in
humidity
%
barometer
mb
20260906231122 58 119 6.0 14.0 0.00 0.07 0.02 88 1016.9
20260906230122 58 126 5.0 12.0 0.00 0.07 0.02 89 1016.9
20260906225143 58 126 6.0 15.0 0.00 0.07 0.02 90 1017.0
20260906224147 57 112 6.0 14.0 0.00 0.07 0.02 91 1017.0
20260906223122 57 115 7.0 14.0 0.00 0.07 0.02 90 1017.2
20260906222125 57 120 6.0 12.0 0.00 0.07 0.02 89 1017.2
20260906221123 57 121 6.0 13.0 0.00 0.07 0.02 90 1017.2
20260906220124 57 115 5.0 11.0 0.00 0.07 0.02 91 1017.2
20260906215122 57 118 6.0 12.0 0.00 0.07 0.02 89 1017.2
20260906214122 57 119 5.0 12.0 0.00 0.07 0.02 92 1017.2
20260906213126 57 119 6.0 12.0 0.00 0.07 0.02 92 1017.2
20260906212123 57 129 5.0 13.0 0.00 0.07 0.02 93 1017.2
20260906211123 56 117 6.0 12.0 0.00 0.08 0.02 96 1017.2
20260906210123 55 107 4.0 10.0 0.00 0.08 0.02 98 1017.2
20260906205122 55 118 4.0 9.0 0.00 0.08 0.02 98 1017.4
20260906204143 54 108 4.0 9.0 0.00 0.09 0.02 99 1017.4
20260906203125 54 114 4.0 9.0 0.00 0.09 0.02 99 1017.6
20260906202123 54 112 4.0 8.0 0.00 0.09 0.02 99 1017.7
20260906201125 54 112 5.0 10.0 0.00 0.09 0.02 99 1017.8
20260906200124 54 117 5.0 12.0 0.00 0.09 0.02 99 1017.8
20260906195125 54 108 6.0 13.0 0.00 0.09 0.02 99 1017.8
20260906194143 53 109 6.0 12.0 0.00 0.09 0.02 99 1017.9
20260906193126 52 106 7.0 16.0 0.00 0.09 0.02 99 1017.9
20260906192122 52 107 7.0 14.0 0.00 0.09 0.02 99 1018.0
20260906191123 52 110 6.0 15.0 0.00 0.09 0.02 99 1018.2
20260906190123 52 119 7.0 14.0 0.00 0.09 0.02 99 1018.2
20260906185145 52 115 7.0 14.0 0.00 0.09 0.02 99 1018.2
20260906184122 52 110 6.0 14.0 0.00 0.09 0.02 99 1018.2
20260906183122 51 96 5.0 13.0 0.00 0.09 0.02 99 1018.2
20260906182122 51 103 7.0 13.0 0.01 0.09 0.02 99 1018.2
20260906181127 51 105 5.0 12.0 0.01 0.09 0.02 99 1018.4
20260906180126 50 109 5.0 13.0 0.01 0.09 0.02 99 1018.4
20260906175122 50 90 6.0 13.0 0.01 0.09 0.02 99 1018.6
20260906174127 50 96 5.0 10.0 0.01 0.09 0.02 99 1018.7
20260906173122 50 98 5.0 11.0 0.01 0.09 0.02 99 1018.7
20260906172143 49 101 5.0 9.0 0.00 0.08 0.01 99 1018.8
20260906171127 49 103 4.0 9.0 0.00 0.08 0.01 99 1018.9
20260906170123 49 96 4.0 8.0 0.00 0.08 0.01 99 1018.9
20260906165144 49 108 4.0 8.0 0.00 0.08 0.01 99 1019.1
20260906164123 49 95 5.0 11.0 0.00 0.08 0.01 99 1019.2
20260906163122 50 106 5.0 11.0 0.00 0.08 0.01 99 1019.2
20260906162144 50 110 4.0 11.0 0.00 0.08 0.01 99 1019.2
20260906161145 50 103 4.0 8.0 0.00 0.08 0.01 99 1019.1
20260906160125 50 69 3.0 7.0 0.00 0.08 0.01 99 1019.1
20260906155122 49 95 3.0 7.0 0.00 0.08 0.01 99 1019.1
20260906154123 49 105 3.0 7.0 0.00 0.08 0.01 99 1019.1
20260906153125 49 114 3.0 7.0 0.00 0.08 0.01 99 1019.2
20260906152124 49 96 1.0 3.0 0.00 0.08 0.01 99 1019.0
20260906151143 49 338 0.0 0.0 0.00 0.08 0.01 99 1019.1
20260906150124 49 84 1.0 3.0 0.00 0.08 0.01 99 1019.1
20260906145122 49 90 0.0 3.0 0.00 0.08 0.01 99 1019.2
20260906144122 49 76 0.0 3.0 0.00 0.08 0.01 99 1019.0
20260906143144 48 299 1.0 4.0 0.00 0.08 0.01 99 1019.0
20260906142143 48 339 2.0 5.0 0.00 0.08 0.01 99 1019.2
20260906141123 48 323 3.0 6.0 0.00 0.08 0.01 99 1019.2
20260906140126 48 315 3.0 7.0 0.00 0.08 0.01 99 1019.2
20260906135123 48 297 4.0 8.0 0.00 0.08 0.01 99 1019.2
20260906134122 48 279 3.0 6.0 0.01 0.08 0.01 99 1019.2
20260906133125 48 267 3.0 7.0 0.01 0.08 0.01 99 1019.4
20260906132122 48 272 1.0 3.0 0.01 0.08 0.01 99 1019.2
20260906131124 48 101 0.0 3.0 0.01 0.08 0.01 99 1019.2
20260906130122 48 274 2.0 4.0 0.01 0.08 0.01 99 1019.2
20260906125122 48 259 2.0 5.0 0.01 0.08 0.01 99 1019.5
20260906124122 48 250 2.0 4.0 0.00 0.07 0.00 99 1019.7
20260906123123 48 246 3.0 6.0 0.00 0.07 0.00 99 1019.7
20260906122122 48 236 2.0 6.0 0.00 0.07 0.00 99 1019.8
20260906121122 48 233 2.0 7.0 0.00 0.07 0.00 99 1020.1
20260906120122 48 238 4.0 8.0 0.00 0.07 0.00 99 1020.1
20260906115123 48 178 4.0 8.0 0.00 0.07 0.00 99 1020.4
20260906114143 48 187 3.0 7.0 0.00 0.07 0.00 99 1020.2
20260906113122 48 184 3.0 7.0 0.00 0.07 0.00 99 1020.5
20260906112124 48 184 3.0 8.0 0.00 0.07 0.00 99 1020.6
20260906111122 48 167 4.0 8.0 0.00 0.07 0.00 99 1020.6
20260906110143 48 168 4.0 8.0 0.00 0.07 0.00 99 1020.6
20260906105143 48 176 2.0 6.0 0.00 0.07 0.00 99 1020.5
20260906104122 48 135 2.0 6.0 0.00 0.07 0.00 99 1020.6
20260906103143 48 108 3.0 6.0 0.00 0.07 0.00 99 1020.1
20260906102143 47 102 2.0 5.0 0.00 0.07 0.00 99 1020.4
20260906101122 47 72 3.0 7.0 0.00 0.07 0.00 99 1020.2
20260906100123 47 78 3.0 7.0 0.00 0.07 0.00 99 1020.2
20260906095124 47 72 3.0 8.0 0.00 0.07 0.00 99 1020.5
20260906094122 47 73 3.0 7.0 0.00 0.07 0.00 99 1020.9
20260906093122 47 94 4.0 9.0 0.00 0.07 0.00 99 1020.8
20260906092123 47 70 3.0 10.0 0.00 0.07 0.00 99 1020.9
20260906091124 47 78 2.0 6.0 0.00 0.07 0.00 99 1020.9
20260906090123 47 90 0.0 5.0 0.00 0.07 0.00 99 1020.9
20260906085122 47 100 1.0 3.0 0.00 0.07 0.00 99 1021.2
20260906084123 47 79 1.0 3.0 0.00 0.07 0.00 99 1021.2
20260906083123 47 92 1.0 4.0 0.00 0.07 0.00 99 1021.7
20260906082122 47 113 0.0 0.0 0.00 0.07 0.00 99 1021.6
20260906081143 47 239 1.0 8.0 0.00 0.07 0.00 99 1021.4
20260906080144 47 252 5.0 12.0 0.00 0.07 0.00 99 1021.4
20260906075143 48 251 5.0 10.0 0.00 0.07 0.00 99 1021.2
20260906074143 48 259 3.0 6.0 0.00 0.07 0.00 99 1021.4
20260906073122 48 252 1.0 4.0 0.00 0.07 0.00 99 1021.5
20260906072123 48 248 0.0 0.0 0.00 0.07 0.00 99 1021.7
20260906071123 48 283 1.0 5.0 0.00 0.07 0.00 99 1021.7
20260906070122 48 279 2.0 4.0 0.00 0.07 0.00 99 1021.7
20260906065122 48 248 3.0 8.0 0.00 0.07 0.00 99 1021.9
20260906064123 48 268 4.0 8.0 0.00 0.07 0.00 99 1021.8
20260906063122 48 289 3.0 8.0 0.00 0.07 0.00 99 1021.7
20260906062122 48 276 3.0 6.0 0.00 0.07 0.00 99 1021.8
20260906061122 48 278 4.0 8.0 0.00 0.07 0.00 99 1021.8
20260906060122 48 280 4.0 8.0 0.00 0.07 0.00 99 1021.8
20260906055122 48 270 4.0 8.0 0.00 0.07 0.07 99 1021.8
20260906054122 48 244 4.0 8.0 0.00 0.07 0.07 99 1021.9
20260906053125 48 258 4.0 8.0 0.00 0.07 0.07 99 1021.8
20260906052122 48 265 5.0 9.0 0.00 0.07 0.07 99 1021.9
20260906051144 48 245 6.0 11.0 0.00 0.07 0.07 99 1021.9
20260906050124 48 244 5.0 9.0 0.00 0.07 0.07 99 1021.9
20260906045122 48 255 3.0 7.0 0.00 0.07 0.07 99 1021.9
20260906044122 48 281 3.0 8.0 0.00 0.07 0.07 99 1021.9
20260906043143 48 298 2.0 5.0 0.01 0.07 0.07 99 1021.9
20260906042124 48 302 3.0 6.0 0.01 0.07 0.07 99 1021.8
20260906041122 48 346 3.0 6.0 0.01 0.07 0.07 99 1021.7
20260906040123 48 351 3.0 7.0 0.01 0.07 0.07 99 1021.7
20260906035123 48 358 2.0 6.0 0.01 0.07 0.07 99 1021.6
20260906034123 48 30 3.0 8.0 0.01 0.07 0.07 99 1021.5
20260906033143 48 3 4.0 8.0 0.00 0.06 0.06 99 1021.4
20260906032124 48 326 4.0 8.0 0.00 0.06 0.06 99 1021.2
20260906031122 48 312 6.0 13.0 0.00 0.06 0.06 99 1021.4
20260906030123 48 299 6.0 12.0 0.00 0.06 0.06 99 1021.4
20260906025144 48 303 6.0 12.0 0.00 0.06 0.06 99 1021.2
20260906024122 48 305 7.0 14.0 0.00 0.06 0.06 99 1021.2
20260906023122 48 299 6.0 12.0 0.00 0.06 0.06 99 1021.2
20260906022123 48 287 5.0 11.0 0.01 0.06 0.06 99 1021.2
20260906021122 48 288 6.0 11.0 0.01 0.06 0.06 99 1021.2
20260906020126 48 276 6.0 11.0 0.01 0.06 0.06 99 1021.2
20260906015122 48 271 5.0 9.0 0.01 0.06 0.06 99 1021.2
20260906014144 48 300 5.0 9.0 0.02 0.06 0.06 99 1021.2
20260906013124 48 300 4.0 8.0 0.02 0.06 0.06 99 1021.2
20260906012145 48 294 4.0 8.0 0.02 0.06 0.06 99 1021.1
20260906011122 48 307 4.0 8.0 0.02 0.05 0.05 99 1021.0
20260906010122 49 356 4.0 8.0 0.03 0.05 0.05 99 1021.0
20260906005122 48 324 4.0 8.0 0.03 0.05 0.05 99 1021.0
20260906004143 48 297 5.0 8.0 0.02 0.04 0.04 99 1021.1
20260906003123 48 310 4.0 8.0 0.02 0.04 0.04 99 1021.2
20260906002145 48 323 4.0 10.0 0.02 0.04 0.04 99 1021.1
20260906001122 48 340 4.0 9.0 0.01 0.03 0.03 99 1021.1
20260906000123 48 326 4.0 10.0 0.00 0.02 0.02 99 1021.1
20260905235126 48 328 4.0 11.0 0.00 0.02 0.02 99 1021.0
20260905234122 48 1 5.0 10.0 0.00 0.02 0.02 99 1021.1
20260905233122 49 37 5.0 11.0 0.00 0.02 0.02 99 1021.0
20260905232143 49 8 4.0 9.0 0.00 0.02 0.02 99 1020.9